• In France
  • List of Countries
  • For 7 days
  • Water Temperature
  • Satellite Maps
  • Weather Map
  • Weather Widgets
  • user-avatar
    Login

    Hourly Weather Yopal

    Today, 18 December, Monday

    Time Temperature Precipitation Wind Pressure Humidity
    00:00 +23°C° 0 mm 1 mps 730 mmHg 63%
    01:00 +23°C° 0 mm 1 mps 729 mmHg 63%
    02:00 +23°C° 0 mm 1 mps 729 mmHg 60%
    03:00 +23°C° 0 mm 1 mps 729 mmHg 57%
    04:00 +21°C° 0 mm 2 mps 729 mmHg 54%
    05:00 +23°C° 0 mm 2 mps 729 mmHg 51%
    06:00 +24°C° 0 mm 2 mps 730 mmHg 49%
    07:00 +24°C° 0 mm 2 mps 730 mmHg 46%
    08:00 +27°C° 0 mm 2 mps 731 mmHg 42%
    09:00 +30°C° 0 mm 3 mps 731 mmHg 37%
    10:00 +34°C° 0 mm 4 mps 731 mmHg 33%
    11:00 +35°C° 0 mm 4 mps 731 mmHg 32%
    12:00 +36°C° 0 mm 4 mps 730 mmHg 30%
    13:00 +37°C° 0 mm 4 mps 729 mmHg 29%
    14:00 +36°C° 0 mm 4 mps 729 mmHg 31%
    15:00 +35°C° 0 mm 3 mps 728 mmHg 33%
    16:00 +35°C° 0 mm 3 mps 728 mmHg 35%
    17:00 +31°C° 0 mm 2 mps 728 mmHg 43%
    18:00 +29°C° 0 mm 2 mps 728 mmHg 51%
    19:00 +26°C° 0 mm 1 mps 729 mmHg 59%
    20:00 +26°C° 0 mm 1 mps 729 mmHg 60%
    21:00 +25°C° 0 mm 1 mps 730 mmHg 60%
    22:00 +25°C° 0 mm 1 mps 731 mmHg 60%
    23:00 +24°C° 0 mm 1 mps 730 mmHg 60%

    Tomorrow, 19 December, Tuesday

    Time Temperature Precipitation Wind Pressure Humidity
    00:00 +24°C° 0 mm 1 mps 730 mmHg 60%
    01:00 +24°C° 0 mm 1 mps 730 mmHg 60%
    02:00 +24°C° 0 mm 1 mps 730 mmHg 59%
    03:00 +23°C° 0 mm 1 mps 730 mmHg 58%
    04:00 +23°C° 0 mm 1 mps 729 mmHg 58%
    05:00 +24°C° 0 mm 1 mps 730 mmHg 56%
    06:00 +24°C° 0 mm 1 mps 730 mmHg 55%
    07:00 +25°C° 0 mm 1 mps 731 mmHg 53%
    08:00 +28°C° 0 mm 2 mps 731 mmHg 48%
    09:00 +30°C° 0 mm 3 mps 731 mmHg 43%
    10:00 +34°C° 0 mm 4 mps 732 mmHg 38%
    11:00 +35°C° 0 mm 4 mps 731 mmHg 36%
    12:00 +36°C° 0 mm 4 mps 730 mmHg 35%
    13:00 +37°C° 0 mm 4 mps 729 mmHg 33%
    14:00 +36°C° 0 mm 3 mps 728 mmHg 35%
    15:00 +36°C° 0 mm 3 mps 728 mmHg 36%
    16:00 +35°C° 0 mm 3 mps 727 mmHg 38%
    17:00 +32°C° 0 mm 2 mps 728 mmHg 46%
    18:00 +29°C° 0 mm 2 mps 728 mmHg 53%
    19:00 +26°C° 0 mm 1 mps 729 mmHg 60%
    20:00 +26°C° 0 mm 1 mps 729 mmHg 61%
    21:00 +25°C° 0 mm 1 mps 730 mmHg 62%
    22:00 +25°C° 0 mm 1 mps 730 mmHg 63%
    23:00 +25°C° 0 mm 1 mps 730 mmHg 63%

    Day after tomorrow, 20 December, Wednesday

    Time Temperature Precipitation Wind Pressure Humidity
    00:00 +24°C° 0 mm 1 mps 730 mmHg 63%
    01:00 +24°C° 0 mm 1 mps 729 mmHg 62%
    02:00 +24°C° 0 mm 1 mps 729 mmHg 61%
    03:00 +24°C° 0 mm 1 mps 729 mmHg 59%
    04:00 +24°C° 0 mm 1 mps 729 mmHg 58%
    05:00 +24°C° 0 mm 1 mps 729 mmHg 57%
    06:00 +25°C° 0 mm 1 mps 730 mmHg 55%
    07:00 +25°C° 0 mm 1 mps 730 mmHg 54%
    08:00 +28°C° 0 mm 2 mps 730 mmHg 48%
    09:00 +30°C° 0 mm 2 mps 731 mmHg 43%
    10:00 +34°C° 0 mm 3 mps 731 mmHg 38%
    11:00 +35°C° 0 mm 3 mps 730 mmHg 37%
    12:00 +36°C° 0 mm 3 mps 729 mmHg 36%
    13:00 +37°C° 0 mm 4 mps 728 mmHg 35%
    14:00 +36°C° 0 mm 3 mps 728 mmHg 38%
    15:00 +35°C° 0 mm 3 mps 727 mmHg 40%
    16:00 +35°C° 0 mm 3 mps 726 mmHg 42%
    17:00 +32°C° 0 mm 2 mps 727 mmHg 50%
    18:00 +30°C° 0 mm 2 mps 727 mmHg 57%
    19:00 +27°C° 0 mm 1 mps 728 mmHg 65%
    20:00 +27°C° 0 mm 1 mps 728 mmHg 66%
    21:00 +26°C° 0 mm 1 mps 729 mmHg 67%
    22:00 +26°C° 0 mm 1 mps 729 mmHg 68%
    23:00 +25°C° 0 mm 1 mps 729 mmHg 69%

    21 December, Thursday

    Time Temperature Precipitation Wind Pressure Humidity
    00:00 +25°C° 0 mm 1 mps 729 mmHg 69%
    01:00 +25°C° 0 mm 1 mps 728 mmHg 69%
    02:00 +25°C° 0 mm 1 mps 728 mmHg 68%
    03:00 +24°C° 0 mm 1 mps 728 mmHg 68%
    04:00 +24°C° 0 mm 1 mps 728 mmHg 67%
    05:00 +25°C° 0 mm 1 mps 729 mmHg 66%
    06:00 +25°C° 0 mm 1 mps 729 mmHg 64%
    07:00 +26°C° 0 mm 1 mps 730 mmHg 63%
    08:00 +28°C° 0 mm 2 mps 730 mmHg 57%
    09:00 +30°C° 0 mm 3 mps 730 mmHg 52%
    10:00 +34°C° 0 mm 3 mps 730 mmHg 46%
    11:00 +35°C° 0 mm 4 mps 730 mmHg 43%
    12:00 +36°C° 0 mm 4 mps 729 mmHg 41%
    13:00 +36°C° 0 mm 4 mps 728 mmHg 39%
    14:00 +36°C° 0 mm 3 mps 727 mmHg 40%
    15:00 +36°C° 0 mm 3 mps 727 mmHg 41%
    16:00 +35°C° 0 mm 3 mps 726 mmHg 43%
    17:00 +33°C° 0 mm 3 mps 727 mmHg 49%
    18:00 +30°C° 0 mm 2 mps 727 mmHg 56%
    19:00 +28°C° 0 mm 1 mps 728 mmHg 63%
    20:00 +27°C° 0 mm 1 mps 728 mmHg 65%
    21:00 +26°C° 0 mm 1 mps 729 mmHg 66%
    22:00 +26°C° 0 mm 1 mps 729 mmHg 68%
    23:00 +25°C° 0 mm 1 mps 729 mmHg 68%

    22 December, Friday

    Time Temperature Precipitation Wind Pressure Humidity
    00:00 +25°C° 0 mm 1 mps 729 mmHg 68%
    01:00 +24°C° 0 mm 1 mps 728 mmHg 69%
    02:00 +24°C° 0 mm 1 mps 728 mmHg 67%
    03:00 +24°C° 0 mm 1 mps 728 mmHg 66%
    04:00 +24°C° 0 mm 1 mps 728 mmHg 64%
    05:00 +24°C° 0 mm 1 mps 729 mmHg 62%
    06:00 +25°C° 0 mm 1 mps 729 mmHg 59%
    07:00 +26°C° 0 mm 1 mps 730 mmHg 57%
    08:00 +28°C° 0 mm 2 mps 730 mmHg 51%
    09:00 +31°C° 0 mm 3 mps 730 mmHg 45%
    10:00 +34°C° 0 mm 4 mps 731 mmHg 39%
    11:00 +35°C° 0 mm 4 mps 730 mmHg 38%
    12:00 +36°C° 0 mm 4 mps 729 mmHg 36%
    13:00 +37°C° 0 mm 4 mps 728 mmHg 35%
    14:00 +37°C° 0 mm 4 mps 728 mmHg 36%
    15:00 +36°C° 0 mm 4 mps 727 mmHg 38%
    16:00 +36°C° 0 mm 3 mps 727 mmHg 40%
    17:00 +33°C° 0 mm 3 mps 727 mmHg 47%
    18:00 +30°C° 0 mm 2 mps 728 mmHg 54%
    19:00 +28°C° 0 mm 1 mps 728 mmHg 61%
    20:00 +27°C° 0 mm 1 mps 729 mmHg 62%
    21:00 +27°C° 0 mm 1 mps 729 mmHg 63%
    22:00 +26°C° 0 mm 1 mps 730 mmHg 64%
    23:00 +26°C° 0 mm 1 mps 729 mmHg 64%

    23 December, Saturday

    Time Temperature Precipitation Wind Pressure Humidity
    00:00 +25°C° 0 mm 1 mps 729 mmHg 64%
    01:00 +25°C° 0 mm 1 mps 729 mmHg 64%
    02:00 +25°C° 0 mm 1 mps 729 mmHg 63%
    03:00 +25°C° 0 mm 1 mps 729 mmHg 62%
    04:00 +25°C° 0 mm 1 mps 729 mmHg 60%
    05:00 +25°C° 0 mm 1 mps 729 mmHg 59%
    06:00 +26°C° 0 mm 1 mps 730 mmHg 58%
    07:00 +26°C° 0 mm 1 mps 730 mmHg 57%
    08:00 +29°C° 0 mm 2 mps 731 mmHg 52%
    09:00 +31°C° 0 mm 3 mps 731 mmHg 47%
    10:00 +34°C° 0 mm 4 mps 731 mmHg 42%
    11:00 +35°C° 0 mm 4 mps 730 mmHg 40%
    12:00 +36°C° 0 mm 4 mps 729 mmHg 39%
    13:00 +37°C° 0 mm 4 mps 728 mmHg 38%
    14:00 +36°C° 0 mm 4 mps 728 mmHg 40%
    15:00 +36°C° 0 mm 4 mps 727 mmHg 42%
    16:00 +35°C° 0 mm 4 mps 726 mmHg 44%
    17:00 +33°C° 0 mm 3 mps 727 mmHg 50%
    18:00 +30°C° 0 mm 2 mps 727 mmHg 56%
    19:00 +28°C° 0 mm 2 mps 728 mmHg 62%
    20:00 +27°C° 0 mm 1 mps 728 mmHg 64%
    21:00 +27°C° 0 mm 1 mps 728 mmHg 65%
    22:00 +26°C° 0 mm 1 mps 729 mmHg 67%
    23:00 +26°C° 0 mm 1 mps 729 mmHg 67%
    Show more